Wahpeton, MN

7:29 PM CST on December 06, 2019 (GMT -0600)
Stern

Weather History for KBWP - October, 2019

Change the Weather History Date:

Tuesday, October 29, 2019

  Actual Average (WUND) Record (WUND)
Temperature  
Mean Temperature 28 °F -  
Max Temperature 32 °F - - (-1)
Min Temperature 23 °F - - (-1)
Degree Days  
Heating Degree Days 38    
Moisture  
Dew Point 16 °F    
Average Humidity 63    
Maximum Humidity 80    
Minimum Humidity 44    
Precipitation  
Precipitation 0.00 in - - ()
Sea Level Pressure  
Sea Level Pressure 30.24 in    
Wind  
Wind Speed 10 mph ()    
Max Wind Speed 20 mph    
Max Gust Speed 24 mph    
Visibility 10.0 miles    
Events      
Averages and records for this station are not official NWS values.
T = Trace of Precipitation, MM = Missing Value Source: Averaged Metar Reports

Daily Weather History Graph

Daily Weather History Graph

Search for Another Location

Airport or City:

Astronomy

Oct. 29, 2019 Rise Set
Actual Time 8:02 AM CDT 6:16 PM CDT
Civil Twilight 7:31 AM CDT 6:47 PM CDT
Nautical Twilight 6:56 AM CDT 7:23 PM CDT
Astronomical Twilight 6:21 AM CDT 7:57 PM CDT
Moon 9:41 AM CDT (10/29) 7:37 PM CDT (10/29)
Length of Visible Light 11h 15m
Length of Day
10h 13m
Waxing Crescent, 3% of the Moon is Illuminated
Oct 29
Waxing Crescent
Nov 4
First Quarter
Nov 12
Full
Nov 19
Last Quarter
Nov 26
New

Hourly Weather History & Observations

Time (CDT) Temp. Windchill Dew Point Humidity Pressure Visibility Wind Dir Wind Speed Gust Speed Precip Events Conditions
12:15 AM 28.4 °F 17.5 °F 19.4 °F 69% 30.12 in 10.0 mi NW 13.8 mph - N/A   Unknown
12:35 AM 28.4 °F 17.5 °F 15.8 °F 59% 30.13 in 10.0 mi NW 13.8 mph 19.6 mph N/A   Unknown
12:55 AM 28.4 °F 20.4 °F 17.6 °F 64% 30.14 in 10.0 mi NW 8.1 mph - N/A   Unknown
1:15 AM 28.4 °F 21.2 °F 19.4 °F 69% 30.14 in 10.0 mi NNW 6.9 mph - N/A   Unknown
1:35 AM 28.4 °F 20.4 °F 17.6 °F 64% 30.14 in 10.0 mi NNW 8.1 mph - N/A   Unknown
1:55 AM 28.4 °F 21.2 °F 17.6 °F 64% 30.14 in 10.0 mi NNW 6.9 mph - N/A   Unknown
2:15 AM 28.4 °F 21.2 °F 19.4 °F 69% 30.15 in 10.0 mi NW 6.9 mph - N/A   Unknown
2:35 AM 28.4 °F 19.7 °F 17.6 °F 64% 30.15 in 10.0 mi NNW 9.2 mph - N/A   Unknown
2:55 AM 28.4 °F 21.2 °F 17.6 °F 64% 30.15 in 10.0 mi NW 6.9 mph - N/A   Unknown
3:15 AM 28.4 °F 21.2 °F 17.6 °F 64% 30.15 in 10.0 mi NW 6.9 mph - N/A   Unknown
3:35 AM 26.6 °F 19.1 °F 17.6 °F 69% 30.16 in 10.0 mi NW 6.9 mph - N/A   Unknown
3:55 AM 26.6 °F 21.2 °F 17.6 °F 69% 30.16 in 10.0 mi NW 4.6 mph - N/A   Unknown
4:15 AM 26.6 °F 20.0 °F 17.6 °F 69% 30.16 in 10.0 mi NW 5.8 mph - N/A   Unknown
4:35 AM 24.8 °F 19.1 °F 17.6 °F 74% 30.17 in 10.0 mi NW 4.6 mph - N/A   Unknown
4:55 AM 24.8 °F 19.1 °F 17.6 °F 74% 30.17 in 10.0 mi WNW 4.6 mph - N/A   Unknown
5:15 AM 24.8 °F 16.9 °F 19.4 °F 80% 30.18 in 10.0 mi West 6.9 mph - N/A   Unknown
5:35 AM 24.8 °F 15.3 °F 17.6 °F 74% 30.19 in 10.0 mi West 9.2 mph - N/A   Unknown
5:55 AM 26.6 °F 16.8 °F 17.6 °F 69% 30.19 in 10.0 mi West 10.4 mph - N/A   Unknown
6:15 AM 24.8 °F 15.3 °F 17.6 °F 74% 30.20 in 10.0 mi West 9.2 mph - N/A   Unknown
6:35 AM 24.8 °F 14.6 °F 15.8 °F 69% 30.20 in 10.0 mi West 10.4 mph - N/A   Unknown
6:55 AM 24.8 °F 16.1 °F 15.8 °F 69% 30.20 in 10.0 mi West 8.1 mph - N/A   Unknown
7:15 AM 23.0 °F 12.4 °F 17.6 °F 80% 30.21 in 10.0 mi West 10.4 mph - N/A   Unknown
7:35 AM 23.0 °F 13.9 °F 15.8 °F 74% 30.22 in 10.0 mi West 8.1 mph - N/A   Unknown
7:55 AM 23.0 °F 12.4 °F 17.6 °F 80% 30.22 in 10.0 mi West 10.4 mph - N/A   Unknown
8:15 AM 23.0 °F 12.4 °F 17.6 °F 80% 30.23 in 10.0 mi West 10.4 mph - N/A   Unknown
8:35 AM 23.0 °F 11.7 °F 17.6 °F 80% 30.23 in 10.0 mi West 11.5 mph - N/A   Unknown
8:55 AM 24.8 °F 13.4 °F 17.6 °F 74% 30.23 in 10.0 mi West 12.7 mph - N/A   Unknown
9:15 AM 24.8 °F 12.4 °F 17.6 °F 74% 30.24 in 10.0 mi West 15.0 mph - N/A   Unknown
9:35 AM 26.6 °F 14.7 °F 17.6 °F 69% 30.26 in 10.0 mi WNW 15.0 mph 23.0 mph N/A   Unknown
9:55 AM 26.6 °F 13.4 °F 17.6 °F 69% 30.26 in 10.0 mi West 18.4 mph 24.2 mph N/A   Unknown
10:15 AM 26.6 °F 13.8 °F 17.6 °F 69% 30.26 in 10.0 mi West 17.3 mph - N/A   Unknown
10:35 AM 28.4 °F 16.2 °F 17.6 °F 64% 30.27 in 10.0 mi West 17.3 mph - N/A   Unknown
10:55 AM 28.4 °F 17.0 °F 17.6 °F 64% 30.27 in 10.0 mi West 15.0 mph - N/A   Unknown
11:15 AM 28.4 °F 15.8 °F 15.8 °F 59% 30.28 in 10.0 mi WNW 18.4 mph 21.9 mph N/A   Unknown
11:35 AM 28.4 °F 16.6 °F 15.8 °F 59% 30.28 in 10.0 mi West 16.1 mph - N/A   Unknown
11:55 AM 30.2 °F 18.1 °F 17.6 °F 60% 30.28 in 10.0 mi West 18.4 mph - N/A   Unknown
12:15 PM 30.2 °F 17.8 °F 14.0 °F 51% 30.28 in 10.0 mi West 19.6 mph - N/A   Unknown
12:35 PM 30.2 °F 19.3 °F 14.0 °F 51% 30.28 in 10.0 mi West 15.0 mph 21.9 mph N/A   Unknown
12:55 PM 30.2 °F 19.3 °F 15.8 °F 55% 30.28 in 10.0 mi West 15.0 mph 20.7 mph N/A   Unknown
1:35 PM 32.0 °F 20.8 °F 14.0 °F 48% 30.27 in 10.0 mi West 17.3 mph - N/A   Unknown
1:55 PM 32.0 °F 20.1 °F 15.8 °F 51% 30.27 in 10.0 mi West 19.6 mph - N/A   Unknown
2:15 PM 30.2 °F 18.5 °F 14.0 °F 51% 30.26 in 10.0 mi WNW 17.3 mph 24.2 mph N/A   Unknown
2:35 PM 30.2 °F 19.8 °F 14.0 °F 51% 30.26 in 10.0 mi WNW 13.8 mph - N/A   Unknown
2:55 PM 32.0 °F 20.5 °F 14.0 °F 48% 30.26 in 10.0 mi WNW 18.4 mph - N/A   Unknown
3:15 PM 32.0 °F 21.2 °F 12.2 °F 44% 30.25 in 10.0 mi West 16.1 mph - N/A   Unknown
3:35 PM 32.0 °F 21.6 °F 14.0 °F 48% 30.25 in 10.0 mi WNW 15.0 mph - N/A   Unknown
3:55 PM 32.0 °F 22.1 °F 12.2 °F 44% 30.26 in 10.0 mi WNW 13.8 mph 21.9 mph N/A   Unknown
4:15 PM 30.2 °F 18.5 °F 14.0 °F 51% 30.26 in 10.0 mi WNW 17.3 mph - N/A   Unknown
4:35 PM 30.2 °F 17.8 °F 14.0 °F 51% 30.26 in 10.0 mi WNW 19.6 mph - N/A   Unknown
4:55 PM 30.2 °F 18.9 °F 12.2 °F 47% 30.26 in 10.0 mi WNW 16.1 mph - N/A   Unknown
5:15 PM 30.2 °F 18.9 °F 12.2 °F 47% 30.26 in 10.0 mi West 16.1 mph 20.7 mph N/A   Unknown
5:35 PM 30.2 °F 19.8 °F 14.0 °F 51% 30.27 in 10.0 mi WNW 13.8 mph - N/A   Unknown
5:55 PM 30.2 °F 21.9 °F 14.0 °F 51% 30.27 in 10.0 mi West 9.2 mph - N/A   Unknown
6:15 PM 28.4 °F 19.1 °F 14.0 °F 55% 30.28 in 10.0 mi West 10.4 mph - N/A   Unknown
6:35 PM 28.4 °F 18.5 °F 14.0 °F 55% 30.28 in 10.0 mi West 11.5 mph - N/A   Unknown
6:55 PM 28.4 °F 18.5 °F 14.0 °F 55% 30.29 in 10.0 mi West 11.5 mph - N/A   Unknown
7:15 PM 28.4 °F 19.1 °F 14.0 °F 55% 30.30 in 10.0 mi West 10.4 mph - N/A   Unknown
7:35 PM 26.6 °F 17.5 °F 14.0 °F 59% 30.31 in 10.0 mi West 9.2 mph - N/A   Unknown
7:55 PM 24.8 °F 16.9 °F 14.0 °F 64% 30.31 in 10.0 mi West 6.9 mph - N/A   Unknown
8:15 PM 23.0 °F 17.0 °F 14.0 °F 68% 30.31 in 10.0 mi West 4.6 mph - N/A   Unknown
8:35 PM 23.0 °F 14.7 °F 14.0 °F 68% 30.31 in 10.0 mi WNW 6.9 mph - N/A   Unknown
8:55 PM 23.0 °F 15.8 °F 14.0 °F 68% 30.31 in 10.0 mi West 5.8 mph - N/A   Unknown
9:15 PM 24.8 °F 17.9 °F 17.6 °F 74% 30.31 in 10.0 mi West 5.8 mph - N/A   Unknown
9:35 PM 26.6 °F 19.1 °F 17.6 °F 69% 30.31 in 10.0 mi WSW 6.9 mph - N/A   Unknown
9:55 PM 26.6 °F 19.1 °F 17.6 °F 69% 30.31 in 10.0 mi WSW 6.9 mph - N/A   Unknown
10:15 PM 26.6 °F 18.2 °F 17.6 °F 69% 30.31 in 10.0 mi WSW 8.1 mph - N/A   Unknown
10:35 PM 28.4 °F 18.0 °F 15.8 °F 59% 30.32 in 10.0 mi West 12.7 mph - N/A   Unknown
10:55 PM 28.4 °F 19.1 °F 15.8 °F 59% 30.32 in 10.0 mi West 10.4 mph - N/A   Unknown
11:15 PM 28.4 °F 17.5 °F 12.2 °F 51% 30.32 in 10.0 mi WNW 13.8 mph - N/A   Unknown
11:55 PM 28.4 °F 18.5 °F 12.2 °F 51% 30.32 in 10.0 mi West 11.5 mph - N/A   Unknown